Showing default

COSMOS 1691, 16139

Orbit data source: Space-Track

COSMOS 1691, 16139 is a payload satellite owned by GUKOS (CIS) in LEO that was launched on Wed, 09 Oct 1985 UTC via a TSIKLON-3 launch vehicle from the Plesetsk Missile And Space Complex (PKMTR). Payload-class satellites include a variety of spacecraft equipped with specific instruments for various scientific and technological missions. These include communications satellites like Starlink; space stations such as the ISS; scientific satellites like the Hubble; Earth observation satellites from companies like Planet Labs, Umbra, and HawkEye 360; GPS; miniature CubeSats for education and research; and military/defense satellites.

Loading next visibility...
Identifier
16139, 1985-094B
Orbit
LEO
Country
Flag of CISCIS
Related business
Manufacturer
NPO PM
Mission
Defense Communications
Bus & Motor
STRELA-3, Unknown motor
Mass
225 kg wet, 225 kg dry
Launch date (UTC)
1985-10-09 (40 years ago)
Launch vehicle
TSIKLON-3
Launch site
Plesetsk Missile And Space Complex (PKMTR)
Object type
Payload
Rocket body
Debris
Shape & HBR
Cyl, 0.8 m
Radar Cross Section
1.257 m², Medium (>0.1 m² and < 1m²)

Expand to show TLE details & history
Last TLE update: 1 day ago

TLE from 1 day ago
0 COSMOS 1691
1 16139U 85094B   25260.00977139  .00000043  00000-0  18269-3 0  9993
2 16139  82.6070 103.5151 0001242  80.0192  73.3191 12.62464935840761
Epoch: 2025-09-17T00:14Z
TLE epoch observation values (Epoch: 2025-09-17T00:14:04.248Z)
Latitude
26.44182°
Longitude
-79.87593°
Altitude
1,415.585 km
Speed
7.155 km/s
True Right ascension
18h 39m 20s
True Declination
26° 18' 59"
Sunlit
Object was in daylight at epoch
Visualization orbit readout
Latitude
Unknown
Longitude
Unknown
Altitude
Unknown
Speed
Unknown
Apparent Right ascension
Unknown
Apparent Declination
Unknown
Sunlit
N/A
Visualization observer readout
Local Sidereal Time
20:54:55
Azimuth
Unknown
Elevation
Unknown
Doppler factor
Unknown
Orbital elements
Apogee altitude
1,411.074 km
Perigee altitude
1,409.139 km
Semi-major axis
7,788.243 km
Eccentricity
0.00012
Inclination
82.607°
RAAN
103.5151°
Arg. of periapsis
80.0192°
True anomaly
73.33273°
Mean anomaly
73.3191°
Eccentric anomaly
73.32592°
Mean motion
3.15779 °/min
Orbital period
114 mins
BSTAR
0.00018269
Loading maneuver chart data...
Computing Atmospheric mass density...
Loading historical data...
Loading historical data...
Loading historical data...
Loading historical data...
Loading historical data...
Loading historical data...
Loading historical data...

Documentation

Showing up to 5 results
|